Total_Precipitation_Accumulation
1.84 1.82 1.74 1.73 1.81 1.84 1.93 2.03 2.02 1.89 1.86 1.74 1.35 1.12 1.12 1.22 1.40 1.23 1.17 1.08 0.98 0.92 0.85 0.86 0.90 0.98 1.08 1.19 1.38 1.56 1.63 1.65 1.66 1.62 1.66 1.79 1.86 1.94
1.61 1.62 1.60 1.61 1.71 1.73 1.79 1.94 2.06 2.07 1.92 1.73 1.53 1.24 1.23 1.14 1.24 1.22 1.19 1.10 0.93 0.81 0.71 0.70 0.74 0.82 0.91 0.97 1.05 1.17 1.23 1.25 1.28 1.33 1.35 1.37 1.40 1.48
1.29 1.32 1.37 1.49 1.64 1.68 1.71 1.77 1.97 2.13 2.04 1.93 1.78 1.64 1.50 1.35 1.18 1.16 1.19 1.12 0.93 0.78 0.65 0.61 0.65 0.68 0.72 0.81 0.90 1.01 1.09 1.13 1.14 1.17 1.21 1.23 1.24 1.27
1.22 1.30 1.34 1.47 1.60 1.57 1.66 1.73 1.90 2.11 2.19 2.32 2.35 2.09 1.80 1.56 1.44 1.28 1.03 0.94 0.95 0.81 0.66 0.59 0.57 0.60 0.62 0.67 0.74 0.88 0.99 1.06 1.08 1.11 1.11 1.11 1.16 1.22
1.25 1.32 1.27 1.30 1.39 1.42 1.54 1.67 1.82 1.97 2.15 2.24 2.36 2.17 1.98 1.68 1.68 1.48 1.22 1.16 0.93 0.87 0.75 0.63 0.58 0.58 0.59 0.64 0.69 0.75 0.83 0.93 0.98 1.08 1.14 1.14 1.14 1.17
1.19 1.17 1.11 1.11 1.20 1.29 1.35 1.52 1.68 1.85 1.97 1.99 2.10 2.16 2.17 2.13 2.07 1.85 1.67 1.47 1.20 0.93 0.89 0.72 0.65 0.61 0.58 0.58 0.62 0.70 0.80 0.91 0.96 1.01 1.09 1.15 1.20 1.23
1.10 1.03 0.90 0.90 0.94 0.99 1.04 1.29 1.49 1.64 1.78 1.87 1.97 2.14 2.25 2.38 2.24 2.11 1.98 1.84 1.58 1.34 1.31 1.03 0.89 0.75 0.63 0.60 0.61 0.63 0.70 0.84 0.94 1.02 1.08 1.11 1.18 1.27
1.02 1.02 0.90 0.77 0.73 0.77 0.80 0.92 1.11 1.28 1.50 1.75 1.90 2.12 2.22 2.20 2.31 2.28 2.20 2.05 1.91 1.71 1.67 1.62 1.45 1.29 1.04 0.77 0.70 0.62 0.58 0.68 0.84 0.95 1.07 1.16 1.21 1.26
0.94 0.97 0.82 0.72 0.72 0.67 0.73 0.79 0.83 0.89 1.02 1.34 1.62 1.76 1.79 1.80 2.03 2.20 2.20 2.12 2.08 1.95 1.96 2.01 1.87 1.63 1.26 1.05 0.92 0.74 0.64 0.60 0.68 0.79 0.86 0.98 1.10 1.20
0.81 0.84 0.85 0.87 0.79 0.76 0.76 0.79 0.76 0.76 0.78 0.84 1.00 1.15 1.32 1.48 1.70 1.98 2.22 2.19 2.20 2.16 2.10 2.21 2.10 1.94 1.57 1.23 1.01 0.80 0.71 0.69 0.72 0.76 0.81 0.85 0.92 1.03
0.80 0.80 0.85 0.91 0.85 0.69 0.68 0.76 0.80 0.82 0.71 0.71 0.73 0.84 0.97 1.11 1.30 1.55 1.82 2.11 2.36 2.38 2.17 2.20 2.16 2.16 2.11 1.69 1.27 1.02 0.81 0.73 0.72 0.73 0.76 0.78 0.81 0.89
0.97 0.94 0.82 0.75 0.71 0.56 0.59 0.72 0.74 0.75 0.69 0.68 0.69 0.70 0.74 0.88 1.00 1.21 1.41 1.66 1.91 2.08 2.06 2.14 2.25 2.51 2.62 2.19 1.64 1.20 0.98 0.92 0.83 0.75 0.74 0.74 0.78 0.72
0.99 0.99 0.89 0.66 0.56 0.51 0.49 0.56 0.63 0.61 0.66 0.74 0.81 0.83 0.83 0.88 0.94 1.02 1.24 1.39 1.46 1.43 1.45 1.76 1.94 2.18 2.49 2.43 2.18 1.79 1.45 1.19 0.99 0.87 0.85 0.86 0.88 0.82
1.07 1.05 0.90 0.71 0.61 0.55 0.46 0.45 0.44 0.43 0.52 0.66 0.75 0.80 0.81 0.82 0.89 1.00 1.16 1.33 1.46 1.39 1.34 1.53 1.71 1.90 1.96 1.95 1.97 2.00 1.96 1.77 1.48 1.23 1.06 1.10 1.08 1.10
0.92 0.99 0.89 0.66 0.57 0.56 0.53 0.46 0.40 0.40 0.50 0.58 0.64 0.71 0.73 0.77 0.89 1.06 1.24 1.35 1.38 1.34 1.26 1.39 1.57 1.73 1.80 1.73 1.67 1.71 1.80 1.79 1.70 1.61 1.54 1.41 1.27 1.21
0.80 0.80 0.81 0.72 0.60 0.61 0.63 0.54 0.47 0.52 0.57 0.57 0.62 0.69 0.75 0.83 0.96 1.04 1.16 1.31 1.41 1.33 1.30 1.39 1.54 1.67 1.66 1.61 1.55 1.47 1.54 1.66 1.74 1.82 1.85 1.77 1.62 1.51
0.85 0.92 0.91 0.94 0.85 0.82 0.84 0.79 0.75 0.78 0.76 0.71 0.71 0.75 0.81 0.87 0.92 1.02 1.13 1.21 1.29 1.31 1.30 1.36 1.46 1.57 1.55 1.52 1.49 1.38 1.36 1.37 1.52 1.79 1.99 1.97 1.77 1.62
0.83 0.95 1.06 1.08 1.06 1.06 1.06 1.03 1.02 0.98 0.97 0.98 0.94 0.89 0.91 0.95 0.96 1.01 1.13 1.20 1.19 1.21 1.27 1.27 1.35 1.50 1.56 1.46 1.26 1.20 1.20 1.23 1.28 1.48 1.71 1.85 1.74 1.60
0.86 0.98 1.13 1.17 1.18 1.19 1.14 1.10 1.12 1.08 1.08 1.10 1.09 1.08 1.09 1.12 1.10 1.09 1.16 1.24 1.21 1.16 1.18 1.28 1.28 1.34 1.36 1.30 1.11 0.92 1.05 1.15 1.18 1.19 1.27 1.42 1.50 1.43
0.95 1.10 1.25 1.24 1.26 1.26 1.19 1.14 1.15 1.11 1.11 1.12 1.12 1.11 1.13 1.18 1.20 1.16 1.17 1.23 1.23 1.17 1.15 1.17 1.19 1.17 1.17 1.17 1.09 0.93 0.79 0.99 1.13 1.15 1.14 1.18 1.19 1.23
1.09 1.20 1.22 1.22 1.25 1.23 1.18 1.16 1.20 1.17 1.14 1.16 1.13 1.13 1.13 1.22 1.24 1.21 1.16 1.19 1.16 1.08 1.05 1.08 1.09 1.08 1.15 1.26 1.21 1.05 0.92 0.84 0.95 1.04 1.09 1.17 1.14 1.11
1.06 1.08 1.06 1.06 1.09 1.11 1.13 1.17 1.23 1.21 1.19 1.18 1.12 1.10 1.11 1.16 1.18 1.18 1.15 1.13 1.13 1.08 1.04 1.05 1.08 1.13 1.21 1.26 1.22 1.13 1.05 0.99 0.95 0.97 0.99 1.01 1.00 0.95
1.00 1.02 1.01 0.98 0.96 1.01 1.05 1.08 1.12 1.14 1.10 1.07 1.04 1.04 1.04 1.10 1.08 1.06 1.07 1.05 1.05 1.07 1.11 1.12 1.13 1.16 1.18 1.24 1.29 1.25 1.13 1.09 1.10 1.06 0.91 0.84 0.77 0.71